Location: Heiligenberg
(48.5381°N, 7.3897°E)
Time: 01:46:26
(UTC+00:00)

Cosmos 2228 - Pass Details

Date: 26 May 2022
Orbit: 586 x 617 km, 82.5° (Epoch: 26 June)

Event Time Altitude Azimuth Distance (km) Brightness Sun altitude
Rises 01:55:38 0° 351° (N) 2,895 7.2 -12.9°
Reaches altitude 10° 01:57:53 10° 353° (N) 1,982 6.4 -12.7°
Maximum altitude 02:02:16 77° 80° (E) 632 3.2 -12.3°
Drops below altitude 10° 02:06:35 10° 166° (SSE) 1,948 5.3 -11.8°
Enters shadow 02:07:41 - 167° (SSE) 2,391 5.7 -11.7°
